Time,TemperatureF,DewpointF,PressureIn,WindDirection,WindDirectionDegrees,WindSpeedMPH,WindSpeedGustMPH,Humidity,HourlyPrecipIn,Conditions,Clouds,dailyrainin,SoftwareType,DateUTC
2013-08-12 00:01:00,61.5,53.2,29.41,SE,135,0.0,0.0,74,-99.99,,,-99.99,WSDL version 423,2013-08-12 04:01:00,
2013-08-12 00:06:00,61.3,53.0,29.41,ESE,113,0.0,0.0,74,-99.99,,,-99.99,WSDL version 423,2013-08-12 04:06:00,
2013-08-12 00:11:00,60.9,52.7,29.41,ENE,68,0.0,0.0,75,-99.99,,,-99.99,WSDL version 423,2013-08-12 04:11:00,
2013-08-12 00:16:00,60.6,52.7,29.41,East,90,0.0,0.0,75,-99.99,,,-99.99,WSDL version 423,2013-08-12 04:16:00,
2013-08-12 00:21:00,60.5,53.0,29.41,ESE,103,0.0,0.0,77,-99.99,,,-99.99,WSDL version 423,2013-08-12 04:21:00,
2013-08-12 00:26:00,60.3,53.2,29.41,ESE,106,1.2,2.0,78,-99.99,,,-99.99,WSDL version 423,2013-08-12 04:26:00,
2013-08-12 00:31:00,60.1,53.2,29.41,ESE,105,0.3,2.0,78,-99.99,,,-99.99,WSDL version 423,2013-08-12 04:31:00,
2013-08-12 00:36:00,60.1,53.7,29.41,NNE,31,0.3,2.0,80,-99.99,,,-99.99,WSDL version 423,2013-08-12 04:36:00,
2013-08-12 00:41:00,60.1,54.3,29.41,NE,40,0.0,2.0,81,-99.99,,,-99.99,WSDL version 423,2013-08-12 04:41:00,
2013-08-12 00:46:00,60.0,54.5,29.41,SW,236,0.6,3.1,82,-99.99,,,-99.99,WSDL version 423,2013-08-12 04:46:00,
2013-08-12 00:51:00,60.0,54.7,29.41,North,353,0.0,3.1,82,-99.99,,,-99.99,WSDL version 423,2013-08-12 04:51:00,
2013-08-12 00:56:00,59.7,54.3,29.41,NNE,20,0.0,0.0,82,-99.99,,,-99.99,WSDL version 423,2013-08-12 04:56:00,
2013-08-12 01:01:00,59.5,54.4,29.41,WSW,248,0.0,0.0,83,-99.99,,,-99.99,WSDL version 423,2013-08-12 05:01:00,
2013-08-12 01:06:00,59.2,54.1,29.41,ENE,73,0.0,0.0,83,-99.99,,,-99.99,WSDL version 423,2013-08-12 05:06:00,
2013-08-12 01:11:00,58.9,53.8,29.41,NNW,338,0.0,0.0,83,-99.99,,,-99.99,WSDL version 423,2013-08-12 05:11:00,
2013-08-12 01:16:00,58.7,53.7,29.41,NNW,338,0.0,0.0,83,-99.99,,,-99.99,WSDL version 423,2013-08-12 05:16:00,
2013-08-12 01:21:00,58.4,53.4,29.38,North,360,0.0,0.0,83,-99.99,,,-99.99,WSDL version 423,2013-08-12 05:21:00,
2013-08-12 01:26:00,58.2,53.7,29.38,North,360,0.0,0.0,86,-99.99,,,-99.99,WSDL version 423,2013-08-12 05:26:00,
2013-08-12 01:31:00,58.1,53.8,29.38,North,360,0.0,0.0,86,-99.99,,,-99.99,WSDL version 423,2013-08-12 05:31:00,
2013-08-12 01:36:00,57.9,53.9,29.38,NNE,33,0.7,1.6,88,-99.99,,,-99.99,WSDL version 423,2013-08-12 05:36:00,
2013-08-12 01:41:00,57.7,54.5,29.38,NNE,17,0.3,1.6,90,-99.99,,,-99.99,WSDL version 423,2013-08-12 05:41:00,
2013-08-12 01:46:00,57.6,55.0,29.38,NE,45,0.0,1.6,91,-99.99,,,-99.99,WSDL version 423,2013-08-12 05:46:00,
2013-08-12 01:51:00,57.6,55.2,29.41,ENE,60,0.0,1.1,92,-99.99,,,-99.99,WSDL version 423,2013-08-12 05:51:00,
2013-08-12 01:56:00,57.6,55.4,29.41,East,90,0.0,0.0,92,-99.99,,,-99.99,WSDL version 423,2013-08-12 05:56:00,
2013-08-12 02:01:00,57.8,55.5,29.41,East,98,0.0,0.0,92,-99.99,,,-99.99,WSDL version 423,2013-08-12 06:01:00,
2013-08-12 02:06:00,57.9,55.7,29.41,SSW,203,0.0,0.0,92,-99.99,,,-99.99,WSDL version 423,2013-08-12 06:06:00,
2013-08-12 02:11:00,57.9,55.6,29.41,SSW,203,0.0,0.0,92,-99.99,,,-99.99,WSDL version 423,2013-08-12 06:11:00,
2013-08-12 02:16:00,57.7,55.4,29.41,SSW,203,0.0,0.0,92,-99.99,,,-99.99,WSDL version 423,2013-08-12 06:16:00,
2013-08-12 02:21:00,57.6,55.2,29.38,North,357,0.0,0.0,91,-99.99,,,-99.99,WSDL version 423,2013-08-12 06:21:00,
2013-08-12 02:26:00,57.5,55.0,29.38,NNW,333,0.0,0.0,91,-99.99,,,-99.99,WSDL version 423,2013-08-12 06:26:00,
2013-08-12 02:31:00,57.4,55.0,29.38,North,360,0.0,0.0,92,-99.99,,,-99.99,WSDL version 423,2013-08-12 06:31:00,
2013-08-12 02:36:00,57.3,55.0,29.38,NNW,340,0.8,1.6,92,-99.99,,,-99.99,WSDL version 423,2013-08-12 06:36:00,
2013-08-12 02:41:00,57.1,55.1,29.38,NNW,338,0.4,2.5,93,-99.99,,,-99.99,WSDL version 423,2013-08-12 06:41:00,
2013-08-12 02:46:00,56.9,55.0,29.38,NNW,343,0.3,2.5,93,-99.99,,,-99.99,WSDL version 423,2013-08-12 06:46:00,
2013-08-12 02:51:00,56.8,55.0,29.38,NNW,343,0.0,1.6,94,-99.99,,,-99.99,WSDL version 423,2013-08-12 06:51:00,
2013-08-12 02:56:00,56.7,55.2,29.38,North,349,0.2,2.7,94,-99.99,,,-99.99,WSDL version 423,2013-08-12 06:56:00,
2013-08-12 03:01:00,56.6,55.1,29.38,North,3,1.0,2.7,96,-99.99,,,-99.99,WSDL version 423,2013-08-12 07:01:00,
2013-08-12 03:06:00,56.3,55.1,29.38,North,354,1.4,2.5,96,-99.99,,,-99.99,WSDL version 423,2013-08-12 07:06:00,
2013-08-12 03:11:00,56.1,55.1,29.38,NNW,348,0.0,2.0,97,-99.99,,,-99.99,WSDL version 423,2013-08-12 07:11:00,
2013-08-12 03:16:00,56.0,55.0,29.38,NNW,338,0.8,2.0,97,-99.99,,,-99.99,WSDL version 423,2013-08-12 07:16:00,
2013-08-12 03:21:00,55.8,54.9,29.38,North,355,0.2,2.0,97,-99.99,,,-99.99,WSDL version 423,2013-08-12 07:21:00,
2013-08-12 03:26:00,55.6,54.7,29.38,North,358,0.8,2.2,97,-99.99,,,-99.99,WSDL version 423,2013-08-12 07:26:00,
2013-08-12 03:31:00,55.5,54.7,29.38,North,11,0.0,2.2,98,-99.99,,,-99.99,WSDL version 423,2013-08-12 07:31:00,
2013-08-12 03:36:00,55.3,54.7,29.38,North,350,0.3,1.6,98,-99.99,,,-99.99,WSDL version 423,2013-08-12 07:36:00,
2013-08-12 03:41:00,55.2,54.8,29.38,North,360,0.8,2.2,99,-99.99,,,-99.99,WSDL version 423,2013-08-12 07:41:00,
2013-08-12 03:46:00,55.1,54.8,29.38,NNE,20,0.0,2.2,99,-99.99,,,-99.99,WSDL version 423,2013-08-12 07:46:00,
2013-08-12 03:51:00,55.0,54.7,29.38,North,8,0.0,1.6,99,-99.99,,,-99.99,WSDL version 423,2013-08-12 07:51:00,
2013-08-12 03:56:00,54.9,54.7,29.38,NNW,343,0.3,2.0,100,-99.99,,,-99.99,WSDL version 423,2013-08-12 07:56:00,
2013-08-12 04:01:00,54.8,54.8,29.38,NW,315,0.0,2.0,100,-99.99,,,-99.99,WSDL version 423,2013-08-12 08:01:00,
2013-08-12 04:06:00,54.7,54.7,29.38,North,360,0.0,2.0,100,-99.99,,,-99.99,WSDL version 423,2013-08-12 08:06:00,
2013-08-12 04:11:00,54.5,54.5,29.38,NNE,20,0.0,0.0,100,-99.99,,,-99.99,WSDL version 423,2013-08-12 08:11:00,
2013-08-12 04:16:00,54.4,54.4,29.38,North,360,0.2,1.6,100,-99.99,,,-99.99,WSDL version 423,2013-08-12 08:16:00,
2013-08-12 04:21:00,54.3,54.3,29.38,North,355,0.0,1.6,100,-99.99,,,-99.99,WSDL version 423,2013-08-12 08:21:00,
2013-08-12 04:26:00,54.1,54.1,29.38,NNW,338,0.4,1.6,100,-99.99,,,-99.99,WSDL version 423,2013-08-12 08:26:00,
2013-08-12 04:31:00,54.1,54.1,29.38,NNW,338,0.0,1.6,100,-99.99,,,-99.99,WSDL version 423,2013-08-12 08:31:00,
2013-08-12 04:36:00,54.0,54.0,29.38,NNW,338,0.0,0.0,100,-99.99,,,-99.99,WSDL version 423,2013-08-12 08:36:00,
2013-08-12 04:41:00,53.8,53.8,29.38,NNW,338,0.8,1.3,100,-99.99,,,-99.99,WSDL version 423,2013-08-12 08:41:00,
2013-08-12 04:46:00,53.6,53.6,29.38,North,358,0.0,1.3,100,-99.99,,,-99.99,WSDL version 423,2013-08-12 08:46:00,
2013-08-12 04:51:00,53.4,53.4,29.38,North,360,0.0,0.0,100,-99.99,,,-99.99,WSDL version 423,2013-08-12 08:51:00,
2013-08-12 04:56:00,53.3,53.3,29.38,NNW,338,0.4,1.1,100,-99.99,,,-99.99,WSDL version 423,2013-08-12 08:56:00,
2013-08-12 05:01:00,53.3,53.3,29.38,North,6,0.0,1.1,100,-99.99,,,-99.99,WSDL version 423,2013-08-12 09:01:00,
2013-08-12 05:06:00,53.2,53.2,29.38,NNE,23,0.0,0.0,100,-99.99,,,-99.99,WSDL version 423,2013-08-12 09:06:00,
2013-08-12 05:11:00,53.2,53.2,29.38,NNE,14,0.0,0.0,100,-99.99,,,-99.99,WSDL version 423,2013-08-12 09:11:00,
2013-08-12 05:16:00,53.1,53.1,29.38,NNE,23,0.2,1.3,100,-99.99,,,-99.99,WSDL version 423,2013-08-12 09:16:00,
2013-08-12 05:21:00,53.1,53.1,29.38,NNE,28,0.0,1.3,100,-99.99,,,-99.99,WSDL version 423,2013-08-12 09:21:00,
2013-08-12 05:26:00,53.0,53.0,29.38,NNE,14,0.0,1.3,100,-99.99,,,-99.99,WSDL version 423,2013-08-12 09:26:00,
2013-08-12 05:31:00,52.9,52.9,29.38,North,355,0.0,0.0,100,-99.99,,,-99.99,WSDL version 423,2013-08-12 09:31:00,
2013-08-12 05:36:00,52.9,52.9,29.38,NNW,338,0.0,0.0,100,-99.99,,,-99.99,WSDL version 423,2013-08-12 09:36:00,
2013-08-12 05:46:00,52.7,52.7,29.38,NNW,338,0.0,0.0,100,-99.99,,,-99.99,WSDL version 423,2013-08-12 09:46:00,
2013-08-12 05:51:00,52.6,52.6,29.38,NNW,338,0.0,0.0,100,-99.99,,,-99.99,WSDL version 423,2013-08-12 09:51:00,
2013-08-12 05:56:00,52.5,52.5,29.38,NNW,338,0.0,0.0,100,-99.99,,,-99.99,WSDL version 423,2013-08-12 09:56:00,
2013-08-12 06:01:00,52.5,52.5,29.38,NNW,338,0.0,0.0,100,-99.99,,,-99.99,WSDL version 423,2013-08-12 10:01:00,
2013-08-12 06:06:00,52.5,52.5,29.38,NNW,338,0.0,0.0,100,-99.99,,,-99.99,WSDL version 423,2013-08-12 10:06:00,
2013-08-12 06:11:00,52.4,52.4,29.38,NNW,338,0.0,0.0,100,-99.99,,,-99.99,WSDL version 423,2013-08-12 10:11:00,
2013-08-12 06:16:00,52.3,52.3,29.38,North,5,0.0,0.0,100,-99.99,,,-99.99,WSDL version 423,2013-08-12 10:16:00,
2013-08-12 06:21:00,52.2,52.2,29.38,NNE,23,0.0,0.0,100,-99.99,,,-99.99,WSDL version 423,2013-08-12 10:21:00,
2013-08-12 06:26:00,52.2,52.2,29.38,NE,56,0.0,0.0,100,-99.99,,,-99.99,WSDL version 423,2013-08-12 10:26:00,
2013-08-12 06:31:00,52.3,52.3,29.38,NNW,338,0.0,0.0,100,-99.99,,,-99.99,WSDL version 423,2013-08-12 10:31:00,
2013-08-12 06:36:00,52.3,52.3,29.38,NNE,23,0.0,0.0,100,-99.99,,,-99.99,WSDL version 423,2013-08-12 10:36:00,
2013-08-12 06:41:00,52.5,52.5,29.38,NE,45,0.0,0.0,100,-99.99,,,-99.99,WSDL version 423,2013-08-12 10:41:00,
2013-08-12 06:46:00,52.7,52.7,29.38,NE,45,0.0,0.0,100,-99.99,,,-99.99,WSDL version 423,2013-08-12 10:46:00,
2013-08-12 06:51:00,53.0,53.0,29.38,North,10,0.0,0.0,100,-99.99,,,-99.99,WSDL version 423,2013-08-12 10:51:00,
2013-08-12 06:56:00,53.5,53.5,29.38,NNE,13,0.0,0.0,100,-99.99,,,-99.99,WSDL version 423,2013-08-12 10:56:00,
2013-08-12 07:01:00,53.9,53.9,29.38,NNE,23,0.0,0.0,100,-99.99,,,-99.99,WSDL version 423,2013-08-12 11:01:00,
2013-08-12 07:06:00,55.4,55.4,29.38,NNE,23,0.0,0.0,100,-99.99,,,-99.99,WSDL version 423,2013-08-12 11:06:00,
2013-08-12 07:11:00,57.6,57.6,29.38,NNE,23,0.0,0.0,100,-99.99,,,-99.99,WSDL version 423,2013-08-12 11:11:00,
2013-08-12 07:16:00,59.6,59.6,29.38,NNE,25,0.0,0.0,100,-99.99,,,-99.99,WSDL version 423,2013-08-12 11:16:00,
2013-08-12 07:21:00,61.0,61.0,29.38,NNE,23,0.0,0.0,100,-99.99,,,-99.99,WSDL version 423,2013-08-12 11:21:00,
2013-08-12 07:26:00,62.0,62.0,29.38,NNE,13,0.0,0.0,100,-99.99,,,-99.99,WSDL version 423,2013-08-12 11:26:00,
2013-08-12 07:31:00,63.0,62.9,29.38,North,8,0.0,0.9,98,-99.99,,,-99.99,WSDL version 423,2013-08-12 11:31:00,
2013-08-12 07:36:00,64.0,62.6,29.38,North,357,0.0,0.9,94,-99.99,,,-99.99,WSDL version 423,2013-08-12 11:36:00,
2013-08-12 07:41:00,64.9,62.5,29.38,NE,42,0.0,0.0,90,-99.99,,,-99.99,WSDL version 423,2013-08-12 11:41:00,
2013-08-12 07:46:00,65.8,62.0,29.38,North,360,0.0,0.0,86,-99.99,,,-99.99,WSDL version 423,2013-08-12 11:46:00,
2013-08-12 07:51:00,65.9,59.9,29.38,NNE,33,0.0,0.0,80,-99.99,,,-99.99,WSDL version 423,2013-08-12 11:51:00,
2013-08-12 07:56:00,65.6,59.0,29.38,North,-999,-999.0,-999.0,77,-99.99,,,-99.99,WSDL version 423,2013-08-12 11:56:00,
2013-08-12 08:01:00,65.3,58.1,29.38,North,-999,-999.0,-999.0,76,-99.99,,,-99.99,WSDL version 423,2013-08-12 12:01:00,
2013-08-12 08:06:00,65.2,57.1,29.38,South,180,0.0,0.0,74,-99.99,,,-99.99,WSDL version 423,2013-08-12 12:06:00,
2013-08-12 08:11:00,64.8,56.3,29.38,East,90,0.0,0.0,74,-99.99,,,-99.99,WSDL version 423,2013-08-12 12:11:00,
2013-08-12 08:16:00,64.8,56.7,29.38,SSW,203,0.0,0.0,75,-99.99,,,-99.99,WSDL version 423,2013-08-12 12:16:00,
2013-08-12 08:21:00,64.6,56.9,29.38,SSW,203,0.0,0.0,76,-99.99,,,-99.99,WSDL version 423,2013-08-12 12:21:00,
2013-08-12 08:26:00,64.7,56.9,29.38,SW,225,0.0,0.0,76,-99.99,,,-99.99,WSDL version 423,2013-08-12 12:26:00,
2013-08-12 08:31:00,65.4,57.9,29.38,WSW,248,0.0,0.0,77,-99.99,,,-99.99,WSDL version 423,2013-08-12 12:31:00,
2013-08-12 08:36:00,66.7,59.1,29.38,South,191,0.0,0.0,77,-99.99,,,-99.99,WSDL version 423,2013-08-12 12:36:00,
2013-08-12 08:41:00,68.3,61.0,29.38,SW,225,0.0,0.0,78,-99.99,,,-99.99,WSDL version 423,2013-08-12 12:41:00,
2013-08-12 08:46:00,69.9,62.1,29.38,WSW,248,0.0,0.0,75,-99.99,,,-99.99,WSDL version 423,2013-08-12 12:46:00,
2013-08-12 08:51:00,71.0,61.5,29.38,SW,225,0.0,0.0,70,-99.99,,,-99.99,WSDL version 423,2013-08-12 12:51:00,
2013-08-12 08:56:00,72.1,60.4,29.38,NW,315,0.0,2.7,66,-99.99,,,-99.99,WSDL version 423,2013-08-12 12:56:00,
2013-08-12 09:01:00,73.4,61.2,29.38,SSW,203,0.0,2.7,64,-99.99,,,-99.99,WSDL version 423,2013-08-12 13:01:00,
2013-08-12 09:06:00,74.3,60.4,29.38,NNE,19,0.0,1.6,61,-99.99,,,-99.99,WSDL version 423,2013-08-12 13:06:00,
2013-08-12 09:11:00,75.0,59.8,29.38,South,191,0.4,2.2,59,-99.99,,,-99.99,WSDL version 423,2013-08-12 13:11:00,
2013-08-12 09:16:00,76.0,60.0,29.38,SW,233,0.6,2.7,57,-99.99,,,-99.99,WSDL version 423,2013-08-12 13:16:00,
2013-08-12 09:26:00,76.7,56.1,29.38,SW,225,2.5,2.9,47,-99.99,,,-99.99,WSDL version 423,2013-08-12 13:26:00,
2013-08-12 09:31:00,77.2,55.8,29.38,North,-999,-999.0,-999.0,48,-99.99,,,-99.99,WSDL version 423,2013-08-12 13:31:00,
2013-08-12 09:36:00,78.3,57.2,29.38,WSW,248,0.9,1.3,48,-99.99,,,-99.99,WSDL version 423,2013-08-12 13:36:00,
2013-08-12 09:41:00,79.5,57.4,29.38,SW,236,0.3,2.2,45,-99.99,,,-99.99,WSDL version 423,2013-08-12 13:41:00,
2013-08-12 09:46:00,80.0,56.2,29.38,SSW,212,0.8,2.2,44,-99.99,,,-99.99,WSDL version 423,2013-08-12 13:46:00,
2013-08-12 09:51:00,80.6,56.1,29.38,SSW,212,0.2,2.2,43,-99.99,,,-99.99,WSDL version 423,2013-08-12 13:51:00,
2013-08-12 09:56:00,81.5,56.2,29.38,SW,233,0.9,1.6,40,-99.99,,,-99.99,WSDL version 423,2013-08-12 13:56:00,
2013-08-12 10:01:00,81.1,53.8,29.38,SW,235,1.7,2.5,39,-99.99,,,-99.99,WSDL version 423,2013-08-12 14:01:00,
2013-08-12 10:06:00,81.3,53.7,29.38,SW,236,1.0,2.5,40,-99.99,,,-99.99,WSDL version 423,2013-08-12 14:06:00,
2013-08-12 10:11:00,81.4,53.5,29.38,SW,222,1.3,2.0,37,-99.99,,,-99.99,WSDL version 423,2013-08-12 14:11:00,
2013-08-12 10:16:00,81.5,53.6,29.38,SW,217,0.0,2.0,39,-99.99,,,-99.99,WSDL version 423,2013-08-12 14:16:00,
2013-08-12 10:21:00,81.0,52.3,29.38,SW,233,1.2,2.5,38,-99.99,,,-99.99,WSDL version 423,2013-08-12 14:21:00,
2013-08-12 10:26:00,81.9,54.7,29.38,WSW,243,0.6,2.5,39,-99.99,,,-99.99,WSDL version 423,2013-08-12 14:26:00,
2013-08-12 10:31:00,82.8,54.2,29.38,WSW,239,0.0,2.0,38,-99.99,,,-99.99,WSDL version 423,2013-08-12 14:31:00,
2013-08-12 10:36:00,83.8,53.9,29.38,WSW,242,1.1,2.0,34,-99.99,,,-99.99,WSDL version 423,2013-08-12 14:36:00,
2013-08-12 10:41:00,83.9,52.0,29.38,SSW,203,1.9,2.5,32,-99.99,,,-99.99,WSDL version 423,2013-08-12 14:41:00,
2013-08-12 10:46:00,84.1,51.7,29.38,SW,225,1.9,2.5,32,-99.99,,,-99.99,WSDL version 423,2013-08-12 14:46:00,
2013-08-12 10:51:00,84.2,51.0,29.38,SW,236,2.3,3.4,31,-99.99,,,-99.99,WSDL version 423,2013-08-12 14:51:00,
2013-08-12 10:56:00,84.7,51.6,29.38,WSW,248,1.3,3.4,32,-99.99,,,-99.99,WSDL version 423,2013-08-12 14:56:00,
2013-08-12 11:01:00,-999.0,-99.9,29.38,WNW,284,1.9,2.9,-999,-99.99,,,-99.99,WSDL version 423,2013-08-12 15:01:00,
2013-08-12 11:06:00,85.5,51.4,29.38,SSW,203,1.2,2.9,31,-99.99,,,-99.99,WSDL version 423,2013-08-12 15:06:00,
2013-08-12 11:16:00,85.5,50.9,29.38,WSW,248,2.2,3.1,30,-99.99,,,-99.99,WSDL version 423,2013-08-12 15:16:00,
2013-08-12 11:21:00,85.8,51.6,29.38,NNW,338,1.3,3.1,31,-99.99,,,-99.99,WSDL version 423,2013-08-12 15:21:00,
2013-08-12 11:26:00,85.7,51.0,29.38,North,-999,-999.0,-999.0,30,-99.99,,,-99.99,WSDL version 423,2013-08-12 15:26:00,
2013-08-12 11:31:00,85.0,50.1,29.38,WSW,248,2.5,2.9,30,-99.99,,,-99.99,WSDL version 423,2013-08-12 15:31:00,
2013-08-12 11:36:00,84.2,49.4,29.38,WSW,242,1.8,2.9,30,-99.99,,,-99.99,WSDL version 423,2013-08-12 15:36:00,
2013-08-12 11:41:00,84.1,49.8,29.38,WSW,240,1.5,2.9,30,-99.99,,,-99.99,WSDL version 423,2013-08-12 15:41:00,
2013-08-12 11:46:00,84.1,49.1,29.38,SW,225,2.1,3.4,30,-99.99,,,-99.99,WSDL version 423,2013-08-12 15:46:00,
2013-08-12 11:51:00,84.4,49.8,29.35,South,169,1.6,3.4,30,-99.99,,,-99.99,WSDL version 423,2013-08-12 15:51:00,
2013-08-12 11:56:00,85.2,50.3,29.35,SW,221,1.8,3.1,30,-99.99,,,-99.99,WSDL version 423,2013-08-12 15:56:00,
2013-08-12 12:01:00,86.0,50.3,29.35,SW,218,1.7,3.1,29,-99.99,,,-99.99,WSDL version 423,2013-08-12 16:01:00,
2013-08-12 12:06:00,86.8,51.0,29.35,WSW,248,2.2,3.6,29,-99.99,,,-99.99,WSDL version 423,2013-08-12 16:06:00,
2013-08-12 12:11:00,86.6,50.6,29.35,SW,229,2.6,3.6,29,-99.99,,,-99.99,WSDL version 423,2013-08-12 16:11:00,
2013-08-12 12:16:00,86.0,49.9,29.35,SW,218,2.1,3.6,29,-99.99,,,-99.99,WSDL version 423,2013-08-12 16:16:00,
2013-08-12 12:21:00,86.3,49.5,29.35,SW,233,2.2,3.1,29,-99.99,,,-99.99,WSDL version 423,2013-08-12 16:21:00,
2013-08-12 12:26:00,85.9,49.6,29.35,WSW,254,2.2,3.6,28,-99.99,,,-99.99,WSDL version 423,2013-08-12 16:26:00,
2013-08-12 12:31:00,86.3,49.4,29.35,WSW,251,1.8,3.6,28,-99.99,,,-99.99,WSDL version 423,2013-08-12 16:31:00,
2013-08-12 12:36:00,85.5,49.2,29.35,WSW,240,1.6,3.4,28,-99.99,,,-99.99,WSDL version 423,2013-08-12 16:36:00,
2013-08-12 12:41:00,84.7,48.7,29.35,WSW,248,1.6,3.4,29,-99.99,,,-99.99,WSDL version 423,2013-08-12 16:41:00,
2013-08-12 12:46:00,83.1,47.8,29.35,SW,230,1.3,3.6,30,-99.99,,,-99.99,WSDL version 423,2013-08-12 16:46:00,
2013-08-12 12:51:00,81.7,47.5,29.35,WSW,245,1.5,3.6,30,-99.99,,,-99.99,WSDL version 423,2013-08-12 16:51:00,
2013-08-12 12:56:00,83.8,49.5,29.35,SSW,195,1.7,3.1,29,-99.99,,,-99.99,WSDL version 423,2013-08-12 16:56:00,
2013-08-12 13:01:00,84.9,49.2,29.35,WSW,248,1.3,3.6,29,-99.99,,,-99.99,WSDL version 423,2013-08-12 17:01:00,
2013-08-12 13:06:00,86.1,50.2,29.35,WSW,248,1.3,3.6,29,-99.99,,,-99.99,WSDL version 423,2013-08-12 17:06:00,
2013-08-12 13:11:00,84.3,48.6,29.35,SW,233,1.0,2.7,29,-99.99,,,-99.99,WSDL version 423,2013-08-12 17:11:00,
2013-08-12 13:16:00,82.9,47.9,29.35,WSW,248,0.4,2.7,31,-99.99,,,-99.99,WSDL version 423,2013-08-12 17:16:00,
2013-08-12 13:21:00,84.3,49.5,29.35,SW,225,0.0,2.7,30,-99.99,,,-99.99,WSDL version 423,2013-08-12 17:21:00,
2013-08-12 13:26:00,85.5,50.4,29.35,SW,225,0.9,2.0,30,-99.99,,,-99.99,WSDL version 423,2013-08-12 17:26:00,
2013-08-12 13:31:00,86.3,50.2,29.35,SW,228,2.0,4.7,28,-99.99,,,-99.99,WSDL version 423,2013-08-12 17:31:00,
2013-08-12 13:36:00,86.2,49.0,29.35,WSW,248,2.3,4.7,28,-99.99,,,-99.99,WSDL version 423,2013-08-12 17:36:00,
2013-08-12 13:41:00,86.2,48.5,29.35,SW,235,2.1,4.0,28,-99.99,,,-99.99,WSDL version 423,2013-08-12 17:41:00,
2013-08-12 13:46:00,86.3,48.0,29.35,WSW,239,1.7,3.8,26,-99.99,,,-99.99,WSDL version 423,2013-08-12 17:46:00,
2013-08-12 13:51:00,86.8,49.8,29.35,WSW,243,1.5,2.9,28,-99.99,,,-99.99,WSDL version 423,2013-08-12 17:51:00,
2013-08-12 13:56:00,87.1,48.1,29.35,SW,230,2.3,3.6,25,-99.99,,,-99.99,WSDL version 423,2013-08-12 17:56:00,
2013-08-12 14:01:00,87.3,47.4,29.35,SSW,203,1.2,3.6,26,-99.99,,,-99.99,WSDL version 423,2013-08-12 18:01:00,
2013-08-12 14:06:00,87.6,48.1,29.35,South,191,1.3,2.7,25,-99.99,,,-99.99,WSDL version 423,2013-08-12 18:06:00,
2013-08-12 14:11:00,87.3,47.2,29.35,WSW,248,1.5,2.7,25,-99.99,,,-99.99,WSDL version 423,2013-08-12 18:11:00,
2013-08-12 14:16:00,87.0,46.1,29.35,South,180,1.8,2.9,24,-99.99,,,-99.99,WSDL version 423,2013-08-12 18:16:00,
2013-08-12 14:21:00,86.8,46.1,29.35,West,259,1.7,3.1,24,-99.99,,,-99.99,WSDL version 423,2013-08-12 18:21:00,
2013-08-12 14:26:00,85.6,47.0,29.35,WSW,258,1.3,3.1,28,-99.99,,,-99.99,WSDL version 423,2013-08-12 18:26:00,
2013-08-12 14:36:00,83.1,47.0,29.35,SW,225,1.3,2.5,29,-99.99,,,-99.99,WSDL version 423,2013-08-12 18:36:00,
2013-08-12 14:41:00,84.5,48.8,29.35,SW,221,1.1,2.9,29,-99.99,,,-99.99,WSDL version 423,2013-08-12 18:41:00,
2013-08-12 14:46:00,84.9,48.9,29.35,SW,221,1.2,2.9,28,-99.99,,,-99.99,WSDL version 423,2013-08-12 18:46:00,
2013-08-12 14:56:00,84.5,48.4,29.35,SW,233,2.6,4.0,28,-99.99,,,-99.99,WSDL version 423,2013-08-12 18:56:00,
2013-08-12 15:01:00,84.2,48.4,29.35,SW,225,2.2,4.0,29,-99.99,,,-99.99,WSDL version 423,2013-08-12 19:01:00,
2013-08-12 15:06:00,83.8,48.0,29.35,SW,231,2.1,3.6,29,-99.99,,,-99.99,WSDL version 423,2013-08-12 19:06:00,
2013-08-12 15:11:00,83.5,48.2,29.35,WSW,248,1.3,3.6,30,-99.99,,,-99.99,WSDL version 423,2013-08-12 19:11:00,
2013-08-12 15:16:00,82.9,48.3,29.35,SW,225,1.5,2.7,30,-99.99,,,-99.99,WSDL version 423,2013-08-12 19:16:00,
2013-08-12 15:21:00,81.9,48.7,29.35,SW,225,0.6,2.7,33,-99.99,,,-99.99,WSDL version 423,2013-08-12 19:21:00,
2013-08-12 15:26:00,81.1,48.5,29.35,SW,218,0.4,1.3,32,-99.99,,,-99.99,WSDL version 423,2013-08-12 19:26:00,
2013-08-12 15:31:00,79.9,47.4,29.35,SW,233,1.4,2.2,32,-99.99,,,-99.99,WSDL version 423,2013-08-12 19:31:00,
2013-08-12 15:36:00,78.8,47.3,29.35,SW,225,0.9,2.2,34,-99.99,,,-99.99,WSDL version 423,2013-08-12 19:36:00,
2013-08-12 15:41:00,78.7,48.3,29.35,WSW,243,0.3,2.0,34,-99.99,,,-99.99,WSDL version 423,2013-08-12 19:41:00,
2013-08-12 15:46:00,79.9,49.2,29.35,WSW,240,1.8,3.1,34,-99.99,,,-99.99,WSDL version 423,2013-08-12 19:46:00,
2013-08-12 15:51:00,80.6,49.0,29.35,West,259,1.5,3.1,33,-99.99,,,-99.99,WSDL version 423,2013-08-12 19:51:00,
2013-08-12 15:56:00,-999.0,-99.9,29.35,North,-999,-999.0,-999.0,-999,-99.99,,,-99.99,WSDL version 423,2013-08-12 19:56:00,
2013-08-12 16:01:00,79.4,47.4,29.35,North,-999,-999.0,-999.0,33,-99.99,,,-99.99,WSDL version 423,2013-08-12 20:01:00,
2013-08-12 16:06:00,78.8,48.1,29.32,SW,225,1.1,1.3,34,-99.99,,,-99.99,WSDL version 423,2013-08-12 20:06:00,
2013-08-12 16:11:00,78.4,48.5,29.32,SSW,212,0.0,2.0,35,-99.99,,,-99.99,WSDL version 423,2013-08-12 20:11:00,
2013-08-12 16:16:00,78.8,49.5,29.32,SSW,207,1.4,3.4,35,-99.99,,,-99.99,WSDL version 423,2013-08-12 20:16:00,
2013-08-12 16:21:00,79.4,49.4,29.35,NE,45,2.5,3.4,35,-99.99,,,-99.99,WSDL version 423,2013-08-12 20:21:00,
2013-08-12 16:26:00,79.8,50.3,29.35,WSW,240,1.6,2.9,36,-99.99,,,-99.99,WSDL version 423,2013-08-12 20:26:00,
2013-08-12 16:31:00,79.7,50.4,29.35,North,-999,-999.0,-999.0,36,-99.99,,,-99.99,WSDL version 423,2013-08-12 20:31:00,
2013-08-12 16:36:00,79.4,49.6,29.35,South,180,2.0,2.7,36,-99.99,,,-99.99,WSDL version 423,2013-08-12 20:36:00,
2013-08-12 16:41:00,79.0,49.3,29.35,SW,225,1.6,2.7,35,-99.99,,,-99.99,WSDL version 423,2013-08-12 20:41:00,
2013-08-12 16:46:00,78.3,48.4,29.35,WNW,287,1.6,2.5,35,-99.99,,,-99.99,WSDL version 423,2013-08-12 20:46:00,
2013-08-12 16:51:00,77.5,48.8,29.35,WNW,289,2.2,3.1,37,-99.99,,,-99.99,WSDL version 423,2013-08-12 20:51:00,
2013-08-12 16:56:00,76.2,49.2,29.35,West,270,2.0,5.8,39,-99.99,,,-99.99,WSDL version 423,2013-08-12 20:56:00,
2013-08-12 17:01:00,75.5,49.2,29.35,SW,217,1.8,5.8,40,-99.99,,,-99.99,WSDL version 423,2013-08-12 21:01:00,
2013-08-12 17:06:00,74.8,49.3,29.35,NNE,23,2.7,3.1,41,-99.99,,,-99.99,WSDL version 423,2013-08-12 21:06:00,
2013-08-12 17:11:00,74.1,48.9,29.35,WSW,248,0.0,2.5,41,-99.99,,,-99.99,WSDL version 423,2013-08-12 21:11:00,
2013-08-12 17:16:00,73.7,49.2,29.35,North,0,0.0,2.2,43,-99.99,,,-99.99,WSDL version 423,2013-08-12 21:16:00,
2013-08-12 17:21:00,72.8,49.9,29.35,West,270,2.0,3.1,45,-99.99,,,-99.99,WSDL version 423,2013-08-12 21:21:00,
2013-08-12 17:26:00,72.1,50.9,29.35,SW,233,1.7,3.1,50,-99.99,,,-99.99,WSDL version 423,2013-08-12 21:26:00,
2013-08-12 17:31:00,70.9,52.4,29.35,WSW,248,2.3,3.1,58,-99.99,,,-99.99,WSDL version 423,2013-08-12 21:31:00,
2013-08-12 17:36:00,68.7,54.3,29.38,WSW,244,1.3,3.1,63,-99.99,,,-99.99,WSDL version 423,2013-08-12 21:36:00,
2013-08-12 17:41:00,67.1,54.7,29.38,West,281,1.6,2.7,61,-99.99,,,-99.99,WSDL version 423,2013-08-12 21:41:00,
2013-08-12 17:46:00,66.2,54.1,29.38,North,352,0.3,2.0,64,-99.99,,,-99.99,WSDL version 423,2013-08-12 21:46:00,
2013-08-12 17:51:00,65.7,54.5,29.35,ESE,118,1.0,2.7,69,-99.99,,,-99.99,WSDL version 423,2013-08-12 21:51:00,
2013-08-12 17:56:00,65.3,55.7,29.35,North,360,0.9,2.9,71,-99.99,,,-99.99,WSDL version 423,2013-08-12 21:56:00,
2013-08-12 18:01:00,64.9,56.4,29.35,NW,320,1.0,2.9,75,-99.99,,,-99.99,WSDL version 423,2013-08-12 22:01:00,